星链-35767(STARLINK-35767)

导读 | 豆包AI

STARLINK-35767是美国太空探索技术公司星链星座的卫星,由美国在2025年12月11日发射升空,属于Starlink Group低轨卫星互联网组网卫星,旨在为全球提供高速低延迟的宽带互联网服务,进一步扩充星链星座的在轨卫星规模,完善全球覆盖能力,满足不同区域的互联网接入需求。

基本信息
目录编号:
67058
目录名称:
STARLINK-35767
国际标识:
2025-294AE
轨道中心:
EARTH
卫星名称:
星链-35767
卫星全名:
星链-35767(STARLINK-35767)
卫星状态:
在轨 (已飞行114 天)
发射日期:
2025-12-11 UTC
国别 :
美国 (US)
星等 :
--
轨道信息
数据来源 国际轨道数据
星历时间: 2026-04-04T02:46:50+0800
11小时前
查看轨道信息
半长轴: 6861.095km
偏心率: 0.0001648
轨道倾角: 43.001°
近地点辐角 264.516°
升交点赤经 256.632°
平近点角 95.550°
近地点: 481.827km
远地点: 484.089km
周期: 94.265分钟
每日圈数: 15.276106
详细信息
固有亮度:
5
最大亮度:
2.5
卫星平台:
Starlink V1.0
覆盖范围:
全球
运营商:
太空探索技术公司
运营商所在国:
美国
制造商(研发单位):
太空探索技术公司
制造商所在国:
美国
使用方式:
暂无
卫星简介
Starlink 计划是 SpaceX 推出的全球卫星互联网项目,通过发射低轨道卫星,为全球尤其是偏远地区提供高速、低延迟的互联网服务。自 2019 年起,Starlink 已部署数千颗卫星,旨在缩小全球数字鸿沟,推动互联网普及。该项目还为军事、航空等行业提供通信支持,带来广泛经济效益。
2D轨道图
3D轨道图
轨道高度分析图
轨道倾角分析图
轨道综合分析图
查看轨道综合分析图